This demonstration page uses our WeatherBlox Daily Observations layout. Learn more.

Left ArrowRight Arrow

39.51506, -84.39828

Hourly Observations for June 12, 2017

Temp ( °F °C ) Dew Point ( °F °C ) Humidity (%) Winds ( mph kmh ) Pressure ( in mb ) Visibility ( mi km ) Precip ( " mm )
12:15 am 00:15 Clear 69 20.8 59 15.2 70 70 Calm 30.06 1018 10 16 0.00 0.00
12:35 am 00:35 Clear 69 20.8 61 16.2 75 75 SW 5 7 30.03 1017 10 16 0.00 0.00
12:55 am 00:55 Clear 69 20.8 61 16.2 75 75 SW 5 7 30.03 1017 10 16 0.00 0.00
1:15 am 01:15 Clear 69 20.8 61 16 74 74 SW 5 7 30.03 1017 10 16 0.00 0.00
1:35 am 01:35 Clear 69 20.8 60 15.8 73 73 WSW 3 6 30.03 1017 10 16 0.00 0.00
1:55 am 01:55 Clear 69 20.8 60 15.5 72 72 SW 3 6 30.03 1017 10 16 0.00 0.00
2:15 am 02:15 Clear 69 20.8 63 17 79 79 WSW 3 6 30.06 1018 10 16 0.00 0.00
2:35 am 02:35 Clear 67 19.3 60 15.5 79 79 Calm 30.06 1018 10 16 0.00 0.00
3:15 am 03:15 Clear 69 20.8 62 16.7 77 77 Calm 30.06 1018 10 16 0.00 0.00
3:35 am 03:35 Clear 67 19.6 60 15.8 79 79 Calm 30.06 1018 10 16 0.00 0.00
3:55 am 03:55 Clear 65 18.1 58 14.7 81 81 Calm 30.06 1018 10 16 0.00 0.00
4:15 am 04:15 Clear 64 18 59 14.8 82 82 Calm 30.06 1018 10 16 0.00 0.00
4:35 am 04:35 Partly Cloudy 66 19 60 15.5 80 80 Calm 30.09 1019 10 16 0.00 0.00
4:55 am 04:55 Partly Cloudy 65 18.1 59 14.9 82 82 Calm 30.09 1019 10 16 0.00 0.00
5:20 am 05:20 Clear 64 17.9 58 14.7 82 82 Calm 30.06 1018 10 16 0.00 0.00
5:35 am 05:35 Clear 64 17.5 58 14.5 83 83 Calm 30.09 1019 10 16 0.00 0.00
5:55 am 05:55 Clear 64 18 59 14.8 82 82 Calm 30.09 1019 10 16 0.00 0.00
6:15 am 06:15 Sunny 64 18 59 15 83 83 Calm 30.09 1019 10 16 0.00 0.00
6:35 am 06:35 Sunny 64 18 59 15 83 83 Calm 30.09 1019 10 16 0.00 0.00
6:55 am 06:55 Sunny 64 18 59 15.1 83 83 Calm 30.09 1019 10 16 0.00 0.00
7:15 am 07:15 Sunny 65 18.4 60 15.6 84 84 Calm 30.09 1019 10 16 0.00 0.00
7:35 am 07:35 Sunny 69 20.8 64 17.7 83 83 Calm 30.09 1019 10 16 0.00 0.00
7:55 am 07:55 Sunny 74 23.6 66 19 75 75 Calm 30.09 1019 10 16 0.00 0.00
8:15 am 08:15 Sunny 74 23.6 63 17 67 67 WSW 5 7 30.12 1020 10 16 0.00 0.00
8:35 am 08:35 Sunny 77 25.1 64 17.5 63 63 SSW 6 9 30.12 1020 10 16 0.00 0.00
8:55 am 08:55 Sunny 77 25.1 63 17.2 62 62 SSW 5 7 30.12 1020 10 16 0.00 0.00
9:15 am 09:15 Sunny 77 25.1 63 17.3 62 62 SSW 5 7 30.12 1020 10 16 0.00 0.00
9:35 am 09:35 Sunny 80 26.5 65 18.3 61 61 SSW 5 7 30.12 1020 10 16 0.00 0.00
9:55 am 09:55 Sunny 80 26.5 64 17.8 59 59 S 7 11 30.09 1019 10 16 0.00 0.00
10:15 am 10:15 Sunny 81 27.1 65 18.4 59 59 S 6 9 30.09 1019 10 16 0.00 0.00
10:35 am 10:35 Sunny 82 27.9 64 18 55 55 WSW 9 15 30.09 1019 10 16 0.00 0.00
10:55 am 10:55 Sunny 83 28.4 66 18.9 56 56 SSW 10 17 30.09 1019 10 16 0.00 0.00
11:15 am 11:15 Sunny 84 28.9 64 17.6 50 50 SSW 8 13 30.09 1019 10 16 0.00 0.00
11:35 am 11:35 Sunny 86 30 65 18.1 49 49 SSW 9 15 30.06 1018 10 16 0.00 0.00
11:55 am 11:55 Sunny 88 30.9 62 16.9 43 43 SSW 6 9 30.06 1018 10 16 0.00 0.00
12:15 pm 12:15 Sunny 89 31.9 63 17.4 42 42 WSW 10 17 30.06 1018 10 16 0.00 0.00
12:35 pm 12:35 Sunny 90 32.1 64 17.5 42 42 SSW 7 11 30.06 1018 10 16 0.00 0.00
12:55 pm 12:55 Sunny 90 32.1 63 17.2 41 41 SW 7 11 30.03 1017 10 16 0.00 0.00
1:15 pm 13:15 Sunny 90 32.1 63 17.1 41 41 SSW 8 13 30.03 1017 10 16 0.00 0.00
1:35 pm 13:35 Sunny 90 32.1 65 18.4 44 44 SW 10 17 30.03 1017 10 16 0.00 0.00
1:55 pm 13:55 Sunny 90 32.1 65 18.1 43 43 SSW 12 19 30.03 1017 10 16 0.00 0.00
2:15 pm 14:15 Sunny 90 32.1 64 17.9 43 43 SSE 9 15 30.03 1017 10 16 0.00 0.00
2:35 pm 14:35 Sunny 90 32.1 63 17.2 41 41 S 7 11 30.00 1016 10 16 0.00 0.00
2:55 pm 14:55 Sunny 90 32.1 63 17.3 41 41 SW 6 9 30.00 1016 10 16 0.00 0.00
3:15 pm 15:15 Sunny 90 32.1 61 16 38 38 SSW 9 15 30.00 1016 10 16 0.00 0.00
3:35 pm 15:35 Sunny 90 32.1 60 15.7 37 37 SW 8 13 29.97 1015 10 16 0.00 0.00
3:55 pm 15:55 Sunny 92 33.1 60 15.8 35 35 SSW 10 17 29.97 1015 10 16 0.00 0.00
4:15 pm 16:15 Sunny 92 33.2 60 15.8 35 35 S 10 17 29.97 1015 10 16 0.00 0.00
4:35 pm 16:35 Sunny 92 33.5 60 15.3 33 33 SW 14 22 29.97 1015 10 16 0.00 0.00
4:55 pm 16:55 Sunny 91 32.6 60 15.7 36 36 SW 9 15 29.97 1015 10 16 0.00 0.00
5:15 pm 17:15 Sunny 90 32.4 60 15.6 36 36 SW 13 20 29.97 1015 10 16 0.00 0.00
5:35 pm 17:35 Sunny 90 32.1 59 15 36 36 SSW 14 22 29.94 1014 10 16 0.00 0.00
5:55 pm 17:55 Sunny 90 32.1 59 15.1 36 36 SSW 12 19 29.94 1014 10 16 0.00 0.00
6:15 pm 18:15 Sunny 90 32.1 60 15.5 37 37 SSW 10 17 29.94 1014 10 16 0.00 0.00
6:35 pm 18:35 Sunny 90 32.1 60 15.8 37 37 SSW 12 19 29.94 1014 10 16 0.00 0.00
6:55 pm 18:55 Sunny 90 32.1 61 15.9 38 38 SW 9 15 29.94 1014 10 16 0.00 0.00
7:15 pm 19:15 Sunny 90 32.1 61 16 38 38 SW 10 17 29.94 1014 10 16 0.00 0.00
7:35 pm 19:35 Sunny 90 32.1 62 16.6 39 39 SW 8 13 29.94 1014 10 16 0.00 0.00
7:55 pm 19:55 Sunny 89 31.8 64 17.6 43 43 SW 9 15 29.94 1014 10 16 0.00 0.00
8:15 pm 20:15 Sunny 85 29.5 61 15.9 44 44 SSW 9 15 29.94 1014 10 16 0.00 0.00
8:35 pm 20:35 Sunny 83 28.2 61 16.3 48 48 SSW 9 15 29.94 1014 10 16 0.00 0.00
8:55 pm 20:55 Sunny 82 28 61 16.1 48 48 SSW 9 15 29.94 1014 10 16 0.00 0.00
9:15 pm 21:15 Clear 81 27.2 62 16.9 53 53 SSW 7 11 29.97 1015 10 16 0.00 0.00
9:35 pm 21:35 Clear 80 26.5 64 17.7 59 59 SSW 7 11 29.97 1015 10 16 0.00 0.00
9:55 pm 21:55 Clear 80 26.5 65 18.3 61 61 SW 5 7 30.00 1016 10 16 0.00 0.00
10:15 pm 22:15 Clear 77 25.1 64 17.9 64 64 SW 3 6 30.00 1016 10 16 0.00 0.00
10:35 pm 22:35 Clear 77 25.1 66 19 69 69 SSW 3 6 30.00 1016 10 16 0.00 0.00
10:55 pm 22:55 Clear 76 24.5 65 18.5 69 69 Calm 30.00 1016 10 16 0.00 0.00
11:15 pm 23:15 Clear 77 24.9 67 19.5 72 72 Calm 30.00 1016 10 16 0.00 0.00
11:35 pm 23:35 Clear 77 25.1 67 19.2 70 70 Calm 30.03 1017 10 16 0.00 0.00
11:55 pm 23:55 Clear 75 24 66 18.9 73 73 Calm 30.03 1017 10 16 0.00 0.00

Powered by AerisWeather